Powrót do katalogu

STARLINK-32952

AktywnyŁącznośćVLEO
NORAD 63146·PAYLOAD·🇺🇸 United States

Wystrzelony Mar 3, 2025 z Cape Canaveral Space Force Station

Loading…

Następne Przeloty (najbliższe 24 godziny)

TLE

ŚwieżeSource: CelesTrak SupGP

Epoka: Sep 14, 2026, 22:47 UTC

1 63146C 25043Q   26257.94979167  .00025571  00000+0  92567-3 0  2576
2 63146  43.0038  34.1885 0001789 272.1702 261.3317 15.27583460    10

Śledź STARLINK-32952 w czasie rzeczywistym z AllMySat

Download on the App Store